Tracking 32139 objects as of 18-Nov-2025
HD Live streaming from Space Station
objects crossing your sky now

STARLINK-35086

Track STARLINK-35086 now!
10-day predictions
STARLINK-35086 is classified as:


NORAD ID: 65699
Int'l Code: 2025-212Z
Perigee: 480.5 km
Apogee: 484.1 km
Inclination: 53.2 °
Period: 94.1 minutes
Semi major axis: 6853 km
RCS: Unknown
Launch date: September 21, 2025
Source: United States (US)
Launch site: AIR FORCE WESTERN TEST RANGE (AFWTR)
Your satellite tracking list
Your tracking list is empty




NASA's NSSDC Master Catalog

Two Line Element Set (TLE):
1 65699U 25212Z   25321.50869528  .00031706  00000-0  10773-2 0  9990
2 65699  53.1586 147.0618 0002595  86.7445 273.3852 15.30221039 10015
Source of the keplerian elements: AFSPC